Regional Weather Roundup
Issued by NWS

Home | Current Version | Previous Version | Graphics & Text | Print | Product List | Glossary On
Versions: 1 2 3 4 5 6 7 8 9 10 11 12 13 14 15 16 17 18 19 20 21 22 23 24 25 26 27 28 29 30 31 32 33 34 35 36 37 38 39 40 41 42 43 44 45 46 47 48 49 50
854
ASUS43 KFSD 232310
RWRSD

WEATHER ROUNDUP FOR SOUTH DAKOTA
NATIONAL WEATHER SERVICE SIOUX FALLS SD
600 PM CDT SAT JUL 23 2016

NOTE: "FAIR" INDICATES FEW OR NO CLOUDS BELOW 12,000 FEET WITH NO
SIGNIFICANT WEATHER AND/OR OBSTRUCTIONS TO VISIBILITY.


SDZ001>005-009-010-012>017-240000-
NORTHWEST AND NORTH CENTRAL SOUTH DAKOTA

CITY           SKY/WX    TMP DP  RH WIND       PRES   REMARKS
BUFFALO          N/A     87  36  16 W22G37    29.89R
FAITH            N/A     90  40  17 NW22G29   29.89F
MOBRIDGE       SUNNY     88  60  38 NW15      29.80S
$$

SDZ012>016-024>037-041>051-057-063-072>074-240000-
SOUTHWEST AND SOUTH CENTRAL SOUTH DAKOTA

CITY           SKY/WX    TMP DP  RH WIND       PRES   REMARKS
RAPID CTY ARPT SUNNY     89  43  20 N17G25    29.94S
PIERRE         SUNNY     90  62  39 NW24G33   29.80R
CUSTER         SUNNY     85  32  15 VRB7G18   30.09S
ELLSWORTH AFB  SUNNY     89  42  19 NW20G26   29.93F
PHILIP         SUNNY     93  47  20 N17G26    29.86R
PINE RIDGE     SUNNY     91  47  21 NE15G22   29.94S
WINNER         FAIR      97  56  25 NW23G31   29.81R HX  95
$$

SDZ004>011-016>023-039-040-240000-
NORTHEAST SOUTH DAKOTA

CITY           SKY/WX    TMP DP  RH WIND       PRES   REMARKS
ABERDEEN       PTSUNNY   87  74  64 NW12      29.73R HX  95
WATERTOWN      SUNNY     89  74  60 S6        29.74F HX  98
BROOKINGS      SUNNY     89  76  65 S7        29.75S HX 100
SISSETON         N/A     84  77  79 S10       29.70S
$$

SDZ017-020-022-023-036>040-048>070-240000-
SOUTHEAST SOUTH DAKOTA

CITY           SKY/WX    TMP DP  RH WIND       PRES   REMARKS
SIOUX FALLS    MOSUNNY   91  72  53 SW5       29.74S HX  98
HURON          SUNNY     94  71  47 VRB5      29.69S HX 101
CHAMBERLAIN    SUNNY     96  70  42 NW16G23   29.76R HX 103
MITCHELL       SUNNY     97  72  44 CALM      29.71S HX 105
YANKTON        SUNNY     93  72  49 S10       29.71S HX 100
$$

ABBREVIATIONS USED IN REMARKS
   TC - TEMPERATURE IN CELSIUS
  WCI - WIND CHILL INDEX
   HX - HEAT INDEX
  VSB - VISIBILITY





USA.gov is the U.S. government's official web portal to all federal, state and local government web resources and services.